User: anonymous   Login
Location: Sceptre
(50.8619°N, 109.2670°W)
Time: 10:46:14
(UTC+00:00)
Language:

YUBILEINY - Orbit

View from above orbital plane
View from above orbital plane
View from above satellite
View from above satellite

Ground track
Ground track

The orbit data is extracted from the following two-line orbital elements,

1 32953U 08025A   22176.10500616  .00000024  00000-0  10000-3 0  9994
2 32953  82.5031 179.1777 0018000 242.0606 117.8652 12.43111233639280
Epoch (UTC): 25 June 2022 02:31:12
Eccentricity: 0.0018000
inclination: 82.5031°
perigee height: 1479 km
apogee height: 1507 km
right ascension of ascending node: 179.1777°
argument of perigee: 242.0606°
revolutions per day: 12.43111233
mean anomaly at epoch: 117.8652°
orbit number at epoch: 63928

The dashed part of the orbit path shows where the satellite is in the earth's shadow,  

DLR